[[{"header":{"parameterUnit":"m.s-1","parameterCategory":1,"la1":30.2991,"la2":30.254,"lo1":-89.0895,"lo2":-89.0444,"dy":0.0017,"dx":0.0017,"nx":28,"ny":28,"refTime":"2025-07-29T21:00:00:Z","depth":0,"parameterNumber":2,"parameterNumberName":"U-component_of_WINDS"},"data":[0,0,0,0,0,0,0,0,0,0,0,0,0,0,0,0,0,0,0,0,0,0,0,0,0,0,0,0,0,0,0,0,0,0,0,0,0,0,0,0,0,0,0,0,0,0,0,0,0,0,0,0,0,0,0,0,0,0,3.6896,3.6898,0,3.7062,3.7064,3.7066,3.7046,3.7043,3.704,3.7038,3.7209,3.7216,3.7223,0,0,0,0,0,0,0,0,0,0,0,0,0,3.656,3.6566,3.6896,3.6898,3.69,3.7062,3.7064,3.7067,3.7046,3.7043,3.704,3.7036,3.7207,3.7215,3.7224,0,0,0,0,0,0,0,0,0,0,0,0,0,3.6714,3.6568,3.6895,3.6909,3.6912,3.7062,3.7064,3.7067,3.7047,3.7043,3.7039,3.7035,3.7204,3.7215,3.7225,3.7372,0,0,3.7258,3.7262,0,0,0,0,0,0,0,0,3.6705,3.6726,3.6905,3.6908,3.6912,3.7029,3.7009,3.7169,3.7048,3.6996,3.7038,3.7033,3.7153,3.7167,3.7208,3.738,3.7387,3.7259,3.7265,3.727,3.7273,0,0,0,0,0,0,0,3.6694,3.6719,3.6962,3.6908,3.6912,3.6907,3.6924,3.7039,3.7095,3.7,3.6999,3.7019,3.7154,3.7197,3.7211,3.739,3.7258,3.7268,3.7274,3.7278,3.7689,3.7693,0,0,0,0,0,0,3.668,3.671,3.6956,3.6967,3.6796,3.6916,3.6936,3.6996,3.7094,3.7105,3.7022,3.7017,3.7181,3.7199,3.7217,3.7394,3.727,3.728,3.7286,3.7684,3.769,3.7694,0,0,0,0,0,0,3.6673,3.6702,3.695,3.6838,3.6869,3.6926,3.6994,3.7001,3.7044,3.711,3.712,3.7056,3.7179,3.7202,3.7333,3.7399,3.7284,3.7294,3.7679,3.7686,3.7692,3.7749,0,0,0,0,0,0,3.6663,3.67,3.6756,3.684,3.6875,3.7063,3.6998,3.7007,3.7063,3.7058,3.7145,3.7156,3.7177,3.7317,3.7344,3.7412,3.7302,3.7673,3.7682,3.769,3.7741,3.7757,3.777,0,0,0,0,0,3.6652,3.6767,3.6759,3.6789,3.6947,3.7067,3.7087,3.7109,3.7068,3.7125,3.7167,3.7153,3.7388,3.7331,3.736,3.7433,3.7669,3.7679,3.7689,3.7735,3.7754,3.777,0,0,0,0,0,0,3.6691,3.6778,3.6771,3.6916,3.6984,3.7063,3.7135,3.7129,3.721,3.7202,3.7227,3.7247,3.7378,3.7419,3.7353,3.7579,3.7523,3.7539,3.7547,3.7566,3.758,3.7567,3.7311,0,0,0,0,0,3.6716,3.6806,3.6877,3.6998,3.7033,3.7078,3.7131,3.7142,3.7214,3.7243,3.7294,3.7364,3.7454,3.7512,3.7599,3.7747,3.7765,3.7812,3.7826,3.7837,3.7851,3.7931,3.7952,3.7728,3.7728,3.7728,0,0,3.6769,3.6828,3.6883,3.7008,3.7061,3.7153,3.7103,3.7202,3.727,3.7258,3.7383,3.7424,3.7504,3.7643,3.7708,3.7681,3.7917,3.785,3.7859,3.7867,3.7943,3.7964,3.7983,3.7735,3.7733,3.7732,0,0,3.6913,3.6968,3.7073,3.7128,3.721,3.7239,3.7265,3.7345,3.7371,3.7497,3.7489,3.757,3.7725,3.7781,3.783,3.7994,3.7983,3.8022,3.8096,3.8173,3.8191,3.8207,3.8263,3.8283,3.8035,3.8035,3.8035,0,3.697,3.7107,3.7129,3.7229,3.7283,3.7275,3.7382,3.7434,3.754,3.7578,3.7547,3.7739,3.7792,3.7944,3.7984,3.8024,3.8053,3.8011,3.8187,3.8203,3.8218,3.8272,3.8293,3.8039,3.8039,3.8038,3.8038,0,3.7171,3.7267,3.7343,3.7444,3.7507,3.761,3.7647,3.7708,3.7713,3.7746,3.7874,3.7937,3.8035,3.8072,3.808,3.8225,3.8206,3.8181,3.8125,3.8242,3.8294,3.8315,3.8045,3.8044,3.8042,3.8041,0,0,3.7345,3.7455,3.7483,3.7527,3.7617,3.7691,3.7793,3.7888,3.7939,3.8013,3.8098,3.8228,3.8205,3.826,3.8274,3.8342,3.8465,3.8308,3.831,3.8333,3.8627,3.8644,3.8668,3.8459,3.8463,3.8466,3.862,0,3.7496,3.7676,3.7697,3.7858,3.7945,3.7938,3.8027,3.8091,3.8124,3.8203,3.824,3.8331,3.8294,3.8327,3.8395,3.8436,3.8524,3.8425,3.8538,3.8542,3.8516,3.8695,3.8714,3.8855,3.864,3.8643,3.8646,0,3.7696,3.7773,3.7942,3.8017,3.8055,3.8134,3.8222,3.8298,3.837,3.8389,3.8451,3.8455,3.856,3.85,3.8645,3.8577,3.8624,3.8652,3.8658,3.8668,3.86,3.8708,3.8901,3.8922,3.8678,3.8676,3.8673,0,3.7803,3.795,3.8069,3.8108,3.8199,3.8255,3.8295,3.8363,3.8419,3.8496,3.8531,3.862,3.8668,3.8737,3.8764,3.8719,3.8907,3.885,3.8925,3.8924,3.8963,3.896,3.9165,3.8997,3.8997,3.8996,3.8996,0,3.7968,3.8071,3.8117,3.8191,3.8305,3.8329,3.8442,3.848,3.8541,3.8621,3.8622,3.8697,3.8729,3.881,3.8833,3.8947,3.897,3.8988,3.8992,3.8987,3.8984,3.9017,3.9007,3.9002,3.9001,3.9,3.8999,0,3.8106,3.8142,3.8271,3.8346,3.8367,3.8448,3.8513,3.8583,3.8615,3.8716,3.8741,3.8791,3.8886,3.892,3.9036,3.9051,3.9184,3.9181,3.9159,3.9159,3.9231,3.9223,3.9463,3.9495,3.9307,3.9309,3.9311,0,3.8209,3.8287,3.8371,3.8424,3.8466,3.8552,3.8608,3.8634,3.8692,3.878,3.8839,3.8933,3.9009,3.916,3.9207,3.9295,3.9293,3.9371,3.9306,3.9298,3.9292,3.9286,3.9293,3.9383,3.9385,3.9386,3.9387,0,3.8386,3.8399,3.8479,3.8565,3.8632,3.8701,3.8768,3.8812,3.8848,3.8913,3.9009,3.9068,3.9185,3.9278,3.9367,3.9409,3.9404,3.9408,3.9429,3.9423,3.9406,3.9415,3.919,3.9402,3.94,3.9399,3.9398,3.9398,3.8508,3.8577,3.8646,3.8734,3.8787,3.885,3.8919,3.8959,3.9039,3.9135,3.9146,3.9249,3.9318,3.9438,3.9484,3.9564,3.9543,3.9575,3.9583,3.959,3.9594,3.9395,3.9581,3.9581,3.958,3.958,3.958,0,3.8684,3.8727,3.8809,3.8902,3.8971,3.896,3.9034,3.9092,3.9182,3.9247,3.9321,3.9431,3.952,3.9573,3.9663,3.9717,3.9717,3.974,3.9735,3.9744,3.9608,3.958,3.9738,3.9738,3.9738,3.9738,3.9738,3.9738,3.8783,3.8898,3.8919,3.906,3.9103,3.9203,3.9245,3.9302,3.9354,3.9475,3.9549,3.9583,3.9643,3.9737,3.9818,3.9831,3.9864,3.9888,3.9899,3.9771,3.9754,3.9739,3.9712,3.9895,3.9895,4.0028,4.0029,4.003]},{"header":{"parameterUnit":"m.s-1","parameterCategory":1,"la1":30.2991,"la2":30.254,"lo1":-89.0895,"lo2":-89.0444,"dy":0.0017,"dx":0.0017,"nx":28,"ny":28,"refTime":"2025-07-29T21:00:00:Z","depth":0,"parameterNumber":3,"parameterNumberName":"V-component_of_WINDS"},"data":[0,0,0,0,0,0,0,0,0,0,0,0,0,0,0,0,0,0,0,0,0,0,0,0,0,0,0,0,0,0,0,0,0,0,0,0,0,0,0,0,0,0,0,0,0,0,0,0,0,0,0,0,0,0,0,0,0,0,2.7941,2.7941,0,2.7992,2.7992,2.7993,2.7936,2.7934,2.7931,2.7929,2.7981,2.7984,2.7988,0,0,0,0,0,0,0,0,0,0,0,0,0,2.7792,2.7795,2.7941,2.7941,2.7942,2.7992,2.7992,2.7993,2.7936,2.7933,2.7931,2.7928,2.798,2.7984,2.7988,0,0,0,0,0,0,0,0,0,0,0,0,0,2.7851,2.7796,2.7941,2.792,2.7918,2.7992,2.7992,2.7993,2.7937,2.7933,2.793,2.7927,2.7979,2.7983,2.7988,2.8085,0,0,2.8004,2.8006,0,0,0,0,0,0,0,0,2.7848,2.7857,2.7922,2.7921,2.792,2.7954,2.7959,2.8024,2.7937,2.793,2.7929,2.7926,2.7975,2.798,2.7996,2.8087,2.8089,2.8004,2.8008,2.801,2.8011,0,0,0,0,0,0,0,2.7844,2.7854,2.7961,2.7923,2.7922,2.7907,2.7912,2.7971,2.797,2.793,2.7926,2.7933,2.7973,2.7992,2.7997,2.809,2.8004,2.8009,2.8012,2.8014,2.8261,2.8264,0,0,0,0,0,0,2.7842,2.7851,2.7959,2.7962,2.7875,2.7912,2.7918,2.7946,2.7969,2.7969,2.7936,2.793,2.7985,2.7991,2.7999,2.8113,2.801,2.8014,2.8017,2.8258,2.8262,2.8266,0,0,0,0,0,0,2.7839,2.7853,2.7957,2.7906,2.7918,2.7918,2.7951,2.7949,2.7967,2.7973,2.7972,2.7955,2.7982,2.7992,2.8064,2.8114,2.8017,2.8021,2.8253,2.8259,2.8264,2.8341,0,0,0,0,0,0,2.7835,2.7852,2.7889,2.7907,2.7921,2.8022,2.7954,2.7952,2.7976,2.797,2.7991,2.7991,2.798,2.8056,2.8069,2.8119,2.8025,2.8249,2.8256,2.8262,2.8334,2.8349,2.8361,0,0,0,0,0,2.783,2.7909,2.7891,2.7905,2.7968,2.8025,2.8033,2.8019,2.7981,2.8018,2.8021,2.7991,2.8106,2.8064,2.8078,2.813,2.8246,2.8254,2.8262,2.8328,2.8346,2.8361,0,0,0,0,0,0,2.7897,2.7911,2.7892,2.7979,2.8001,2.8015,2.8062,2.8038,2.8072,2.8064,2.8045,2.805,2.8127,2.8135,2.8089,2.8224,2.8169,2.818,2.8216,2.8232,2.8245,2.8242,2.803,0,0,0,0,0,2.7922,2.7968,2.7977,2.8053,2.8065,2.8062,2.8086,2.8074,2.8096,2.8105,2.8114,2.8137,2.8177,2.8205,2.8243,2.8335,2.8338,2.8377,2.8391,2.8401,2.8411,2.846,2.8477,2.8292,2.8292,2.8291,0,0,2.7974,2.7987,2.8018,2.8067,2.8083,2.813,2.807,2.8123,2.8158,2.8113,2.8182,2.8189,2.8212,2.8294,2.8331,2.8304,2.8463,2.8412,2.842,2.8424,2.847,2.8487,2.8503,2.8297,2.8296,2.8295,0,0,2.8093,2.8108,2.8172,2.8189,2.8214,2.8211,2.8226,2.8244,2.8247,2.8315,2.8282,2.8322,2.8394,2.8412,2.8431,2.8555,2.8528,2.8568,2.8637,2.8684,2.8699,2.8712,2.8756,2.8772,2.8577,2.8577,2.8578,0,2.8155,2.8225,2.8208,2.8264,2.8286,2.8247,2.8311,2.8328,2.8365,2.8381,2.835,2.8438,2.8451,2.8536,2.8567,2.8583,2.86,2.8566,2.8698,2.8711,2.8723,2.8765,2.8781,2.8582,2.8582,2.8581,2.8581,0,2.8299,2.8349,2.8397,2.8433,2.8461,2.8521,2.8512,2.8542,2.8526,2.8526,2.8595,2.861,2.865,2.8669,2.8654,2.8752,2.8734,2.8701,2.8646,2.8745,2.8784,2.88,2.8589,2.8587,2.8586,2.8585,0,0,2.8463,2.8488,2.8506,2.8521,2.8545,2.8582,2.8639,2.8679,2.8705,2.873,2.8777,2.8838,2.8807,2.8828,2.8815,2.8856,2.8953,2.8818,2.8818,2.8843,2.9061,2.9086,2.9105,2.8935,2.8938,2.894,2.9059,0,2.8583,2.8682,2.8668,2.8764,2.8809,2.8772,2.8821,2.8841,2.8842,2.8879,2.888,2.8923,2.8879,2.8892,2.8931,2.8933,2.8997,2.8924,2.8979,2.8981,2.8975,2.9126,2.9153,2.9264,2.9074,2.9077,2.9079,0,2.8736,2.8767,2.8867,2.8883,2.8901,2.8946,2.898,2.9017,2.9037,2.9035,2.9058,2.9037,2.9093,2.9037,2.9114,2.9065,2.9086,2.909,2.9094,2.9099,2.9036,2.9135,2.9299,2.9317,2.9103,2.9101,2.9099,0,2.8845,2.8912,2.898,2.8994,2.9014,2.9047,2.9056,2.9074,2.9098,2.9127,2.9143,2.9178,2.9198,2.9226,2.9215,2.9174,2.9294,2.9236,2.9293,2.9294,2.9321,2.9319,2.9491,2.9334,2.9333,2.9333,2.9333,0,2.898,2.9043,2.903,2.9072,2.9141,2.9123,2.9191,2.9196,2.9212,2.9254,2.9224,2.9264,2.9246,2.9284,2.9276,2.9341,2.935,2.9349,2.9346,2.9352,2.9353,2.9366,2.9359,2.9337,2.9336,2.9336,2.9335,0,2.9115,2.9108,2.9181,2.9193,2.9198,2.9248,2.9258,2.9297,2.9295,2.9349,2.936,2.9357,2.94,2.9391,2.944,2.9433,2.9515,2.9502,2.9508,2.9506,2.9563,2.9558,2.975,2.9775,2.9601,2.9602,2.9604,0,2.9202,2.9249,2.9267,2.9293,2.9305,2.9347,2.9371,2.9355,2.9381,2.9408,2.9444,2.9484,2.9516,2.9588,2.9589,2.9625,2.9613,2.9678,2.9619,2.9623,2.9615,2.9612,2.9617,2.9691,2.9693,2.9694,2.9695,0,2.9357,2.9351,2.9387,2.9422,2.9452,2.9479,2.9503,2.9525,2.9511,2.9542,2.9586,2.9611,2.9659,2.97,2.9734,2.9743,2.9717,2.9714,2.9729,2.9736,2.9738,2.9738,2.9541,2.971,2.9708,2.9707,2.9707,2.9706,2.947,2.9511,2.9529,2.957,2.9586,2.9609,2.9646,2.9648,2.9685,2.9723,2.9711,2.9761,2.9779,2.9821,2.9834,2.9873,2.9849,2.9871,2.9876,2.9882,2.9889,2.9731,2.9879,2.9879,2.9878,2.9878,2.9877,0,2.9624,2.9634,2.9671,2.9706,2.9738,2.971,2.9734,2.9763,2.9808,2.9827,2.9859,2.9909,2.9948,2.9952,2.9989,3.0019,3.0008,3.0029,3.0027,3.003,2.9909,2.9892,3.0038,3.0038,3.0038,3.0037,3.0037,3.0037,2.9708,2.9774,2.977,2.9844,2.9852,2.9902,2.9918,2.9938,2.9953,3.0011,3.0043,3.0046,3.0059,3.0096,3.013,3.013,3.0145,3.0171,3.0167,3.0054,3.0038,3.0023,3.0007,3.0175,3.0175,3.0285,3.0286,3.0286]}]]